Find Starlink 31688

NORAD ID: 59386 Int'l Des: 2024-062 Owner: SPXS Country: US Constellation: starlink operational
LEOCIRCULAR

現在のビュー

3D地球を読み込み中...

About Starlink 31688

Starlink 31688 (NORAD 59386) is a starlink constellation satellite (v2 mini) launched Apr 2, 2024 by SPXS of US. It operates in LEO, CIRCULAR orbit with a mass of 730.00 kg.

Starlink 31688について

説明を読み込み中...

次回通過

Passes for default location (London). Set your location on the main map for personalized predictions.

高度履歴

Loading altitude history...

軌道要素

1 59386U 24062N 26166.23018736 .00000860 00000-0 36618-4 0 9998
2 59386 53.1600 164.1409 0001341 91.6056 268.5100 15.34382735124548
Epoch: Jun 15, 2026 • Age: 17 hours

現在のステータス

高度 462.8 km
速度 7.64 km/s
衛星直下点 8.49°N, 78.55°W
打ち上げ日 Apr 2, 2024
運用期間 2.2 years
タイプ internet

技術仕様

分類 Payload
質量 730.00 kg
乾燥質量 700.00 kg
総質量 730.00 kg
長さ 0.30 m
直径 4.10 m
スパン 29.00 m
形状 Box + pan
製造者 SPXS
バスタイプ Starlink V2M
フェーズステータス In Orbit
所有者/国 SPXS/US

Most Searched